Overview Statistics Trail Chart Weather Telemetry Raw packets
 

This is the latest recevied weather packets stored in our database for station/object 4S6DRJ-13. If no packets are shown the sender has not sent any weather packets the latest 10 day(s).

<< 439 440 441 442 443 444 445 >>
Time Temp. Humidity Pressure Rain* Wind** Luminosity Snow
1787789909 26.67° C 89% 1009.3 hPa 0 mm 0.45 m/s, 232° 0 W/m² -
1787789847 26.67° C 89% 1009.4 hPa 0 mm 0.45 m/s, 216° 0 W/m² -
1787789786 26.67° C 89% 1009.4 hPa 0 mm 0.89 m/s, 231° 0 W/m² -
1787789725 26.67° C 89% 1009.4 hPa 0 mm 0.89 m/s, 182° 0 W/m² -
1787789664 26.67° C 89% 1009.2 hPa 0 mm 0.45 m/s, 208° 0 W/m² -
1787789603 26.67° C 89% 1009.3 hPa 0 mm 0.45 m/s, 223° 0 W/m² -
1787789542 26.67° C 89% 1009.2 hPa 0 mm 0 m/s 0 W/m² -
1787789481 26.67° C 89% 1009.4 hPa 0 mm 0.45 m/s, 244° 0 W/m² -
1787789420 26.67° C 89% 1009.3 hPa 0 mm 0.89 m/s, 212° 0 W/m² -
1787789359 26.67° C 89% 1009.3 hPa 0 mm 0.89 m/s, 257° 0 W/m² -
1787789298 26.67° C 89% 1009.1 hPa 0 mm 1.79 m/s, 215° 0 W/m² -
1787789237 26.67° C 89% 1009.2 hPa 0 mm 0.45 m/s, 197° 0 W/m² -
1787789176 26.67° C 89% 1009.1 hPa 0 mm 1.79 m/s, 217° 0 W/m² -
1787789115 26.67° C 89% 1009.2 hPa 0 mm 0.45 m/s, 215° 0 W/m² -
1787789054 26.67° C 89% 1009.2 hPa 0 mm 0.45 m/s, 171° 0 W/m² -
1787788993 26.67° C 89% 1009.3 hPa 0 mm 0 m/s 0 W/m² -
1787788932 26.67° C 89% 1009.2 hPa 0 mm 0 m/s 0 W/m² -
1787788872 26.67° C 89% 1009.2 hPa 0 mm 0 m/s 0 W/m² -
1787788810 26.67° C 89% 1009.2 hPa 0 mm 0.45 m/s, 218° 0 W/m² -
1787788749 26.67° C 89% 1009 hPa 0 mm 0.45 m/s, 251° 0 W/m² -
1787788688 26.67° C 89% 1009.2 hPa 0 mm 0.89 m/s, 249° 0 W/m² -
1787788627 26.67° C 89% 1009.1 hPa 0 mm 0.45 m/s, 181° 0 W/m² -
1787788566 26.67° C 89% 1009.2 hPa 0 mm 0.45 m/s, 191° 0 W/m² -
1787788505 26.67° C 89% 1009.2 hPa 0 mm 0.45 m/s, 204° 0 W/m² -
1787788444 26.67° C 89% 1009.3 hPa 0 mm 0.45 m/s, 229° 0 W/m² -

* Rain latest hour (hover to see other rain measurements)
** Current wind speed in m/s (hover to see current wind gust speed)